Weather History for Garrison, ND

Change the Weather History Date:

Thursday, September 6, 2012

  Actual Average Record
Temperature  
Mean Temperature 61 °F -  
Max Temperature 73 °F 74 °F 95 °F (2003)
Min Temperature 49 °F 48 °F 39 °F (2004)
Degree Days  
Heating Degree Days 4    
Month to date heating degree days 9  
Growing Degree Days 8 (Base 50)    
Moisture  
Dew Point 46 °F    
Average Humidity 61    
Maximum Humidity 80    
Minimum Humidity 41    
Precipitation  
Precipitation 0.02 in - - ()
Month to date precipitation 0.13  
Year to date precipitation 13.01  
Sea Level Pressure  
Sea Level Pressure 29.98 in    
Wind  
Wind Speed 7 mph (North)    
Max Wind Speed 21 mph    
Max Gust Speed 26 mph    
Averages and records for this station are not official NWS values.
T = Trace of Precipitation, MM = Missing Value Source: NWS Daily Summary

Daily Weather History Graph

Daily Weather History Graph

Search for Another Location

Airport:

Trip Planner

Search our weather history database for the weather conditions in past years. The results will help you decide how hot, cold, wet, or windy it might be!

Date:

Astronomy

Sep. 06, 2012 Rise Set
Actual Time 7:11 AM CDT 8:15 PM CDT
Civil Twilight 6:40 AM CDT 8:46 PM CDT
Nautical Twilight 6:02 AM CDT 9:24 PM CDT
Astronomical Twilight 5:22 AM CDT 10:04 PM CDT
Moon 10:57 PM CDT (9/6) 1:42 PM CDT (9/6)
Length of Visible Light 14h 06m
Length of Day
13h 03m
Waning Gibbous, 67% of the Moon is Illuminated
Sep 6
Waning Gibbous
Sep 8
Last Quarter
Sep 15
New
Sep 22
First Quarter
Sep 29
Full

Hourly Weather History & Observations

Time (CDT) Temp. Windchill Dew Point Humidity Pressure Visibility Wind Dir Wind Speed Gust Speed Precip Events Conditions
12:52 AM 55.0 °F - 44.1 °F 67% 29.91 in - East 3.5 mph - N/A   Unknown
1:52 AM 51.1 °F - 43.0 °F 74% 29.93 in - Calm Calm - N/A   Unknown
2:52 AM 50.0 °F - 43.0 °F 77% 29.93 in - North 4.6 mph - N/A   Unknown
3:52 AM 50.0 °F - 43.0 °F 77% 29.92 in - North 3.5 mph - N/A   Unknown
4:52 AM 48.9 °F - 43.0 °F 80% 29.93 in - North 6.9 mph - N/A   Unknown
5:52 AM 54.0 °F - 46.0 °F 75% 29.93 in - NNE 3.5 mph - N/A   Unknown
6:52 AM 55.0 °F - 48.0 °F 77% 29.96 in - North 4.6 mph - N/A   Unknown
7:52 AM 57.0 °F - 48.0 °F 72% 29.95 in - NNE 6.9 mph - N/A   Unknown
8:52 AM 57.0 °F - 50.0 °F 77% 29.96 in - NE 5.8 mph - N/A   Unknown
9:52 AM 60.1 °F - 50.0 °F 69% 29.98 in - Calm Calm - N/A   Unknown
10:52 AM 63.0 °F - 48.0 °F 58% 29.98 in - NNE 5.8 mph - N/A   Unknown
11:52 AM 66.0 °F - 48.0 °F 52% 29.98 in - North 9.2 mph - N/A   Unknown
12:52 PM 68.0 °F - 46.9 °F 47% 29.97 in - NW 8.1 mph - N/A   Unknown
1:52 PM 71.1 °F - 46.9 °F 42% 29.96 in - NW 6.9 mph - N/A   Unknown
2:52 PM 69.1 °F - 46.9 °F 45% 29.96 in - North 11.5 mph 17.3 mph N/A   Unknown
3:52 PM 66.9 °F - 50.0 °F 54% 29.97 in - North 9.2 mph - 0.02 in   Unknown
4:52 PM 69.1 °F - 48.9 °F 49% 29.98 in - NNE 11.5 mph - N/A   Unknown
5:52 PM 66.0 °F - 46.9 °F 50% 30.00 in - North 9.2 mph 16.1 mph N/A   Unknown
6:52 PM 66.0 °F - 46.0 °F 48% 30.01 in - North 12.7 mph - N/A   Unknown
7:52 PM 62.1 °F - 46.9 °F 58% 30.04 in - NNE 6.9 mph - N/A   Unknown
8:52 PM 54.0 °F - 45.0 °F 72% 30.06 in - North 5.8 mph - N/A   Unknown
9:52 PM 55.0 °F - 44.1 °F 67% 30.09 in - North 6.9 mph - N/A   Unknown
10:52 PM 46.9 °F - 42.1 °F 83% 30.12 in - North 6.9 mph - N/A   Unknown
11:52 PM 45.0 °F 41.2 °F 41.0 °F 86% 30.12 in - NNW 6.9 mph - N/A   Unknown